STAR ONE C3

Last updated on Mon Oct 14 2024 00:02:39 GMT+0000 (Coordinated Universal Time)

1 38991U 12062A 24287.46319883 -.00000251 00000+0 00000+0 0 9993 2 38991 0.0377 61.9257 0002254 118.8766 293.4895 1.00273513 43727
UTC large
Height (km)
Speed (km/s)
/
Latitude / Longitude
Inclination (degrees)
Orbital Period (minutes)
Azimuth
Elevation
Range (km)
Doppler Factor

Next 0 passes for location: London (51.5072 / 0.1276)

Sorry there are no passes over London.